Weather History for KFMN - November, 2012

Change the Weather History Date:

Sunday, November 18, 2012

  Actual Average Record
Temperature  
Mean Temperature 46 °F -  
Max Temperature 59 °F 50 °F 69 °F (2008)
Min Temperature 33 °F 25 °F 12 °F (1980)
Degree Days  
Heating Degree Days 19    
Moisture  
Dew Point 28 °F    
Average Humidity 53    
Maximum Humidity 75    
Minimum Humidity 21    
Precipitation  
Precipitation 0.00 in - - ()
Sea Level Pressure  
Sea Level Pressure 30.14 in    
Wind  
Wind Speed 6 mph (ENE)    
Max Wind Speed 10 mph    
Max Gust Speed -    
Visibility 10 miles    
Events      
Averages and records for this station are not official NWS values.
T = Trace of Precipitation, MM = Missing Value Source: NWS Daily Summary

Daily Weather History Graph

Daily Weather History Graph

Search for Another Location

Airport or City:

Trip Planner

Search our weather history database for the weather conditions in past years. The results will help you decide how hot, cold, wet, or windy it might be!

Date:

Astronomy

Nov. 18, 2012 Rise Set
Actual Time 6:54 AM MST 5:01 PM MST
Civil Twilight 6:26 AM MST 5:29 PM MST
Nautical Twilight 5:55 AM MST 6:00 PM MST
Astronomical Twilight 5:24 AM MST 6:31 PM MST
Moon 11:25 AM MST (11/18) 10:22 PM MST (11/18)
Length of Visible Light 11h 02m
Length of Day
10h 06m
Waxing Crescent, 31% of the Moon is Illuminated
Nov 18
Waxing Crescent
Nov 20
First Quarter
Nov 28
Full
Dec 6
Last Quarter
Dec 13
New

Hourly Weather History & Observations

Time (MST) Temp. Windchill Dew Point Humidity Pressure Visibility Wind Dir Wind Speed Gust Speed Precip Events Conditions
12:53 AM 41.0 °F 35.8 °F 27.0 °F 57% 30.08 in 10.0 mi East 8.1 mph - N/A   Clear
1:53 AM 37.9 °F 35.5 °F 27.0 °F 65% 30.10 in 10.0 mi NNE 3.5 mph - N/A   Partly Cloudy
2:53 AM 36.0 °F 31.1 °F 26.1 °F 67% 30.09 in 10.0 mi NNE 5.8 mph - N/A   Clear
3:53 AM 36.0 °F 29.0 °F 26.1 °F 67% 30.10 in 10.0 mi ENE 9.2 mph - N/A   Clear
4:53 AM 35.1 °F 28.6 °F 26.1 °F 70% 30.10 in 10.0 mi East 8.1 mph - N/A   Clear
5:53 AM 34.0 °F 27.2 °F 27.0 °F 75% 30.12 in 10.0 mi East 8.1 mph - N/A   Clear
6:53 AM 34.0 °F 27.2 °F 27.0 °F 75% 30.15 in 10.0 mi East 8.1 mph - N/A   Clear
7:53 AM 39.0 °F 33.4 °F 28.0 °F 65% 30.16 in 10.0 mi East 8.1 mph - N/A   Partly Cloudy
8:53 AM 42.1 °F 38.4 °F 28.9 °F 60% 30.17 in 10.0 mi East 5.8 mph - N/A   Clear
9:53 AM 46.9 °F - 30.9 °F 54% 30.15 in 10.0 mi ESE 9.2 mph - N/A   Clear
10:53 AM 52.0 °F - 32.0 °F 47% 30.15 in 10.0 mi East 3.5 mph - N/A   Clear
11:53 AM 55.0 °F - 32.0 °F 42% 30.11 in 10.0 mi Calm Calm - N/A   Clear
12:53 PM 57.0 °F - 30.9 °F 37% 30.09 in 10.0 mi Variable 3.5 mph - N/A   Clear
1:53 PM 57.9 °F - 28.9 °F 33% 30.09 in 10.0 mi Variable 5.8 mph - N/A   Clear
2:53 PM 59.0 °F - 28.0 °F 31% 30.08 in 10.0 mi WNW 10.4 mph - N/A   Clear
3:53 PM 57.0 °F - 28.0 °F 33% 30.10 in 10.0 mi WSW 3.5 mph - N/A   Clear
4:53 PM 55.0 °F - 28.0 °F 35% 30.13 in 10.0 mi WNW 4.6 mph - N/A   Clear
5:53 PM 48.9 °F - 28.0 °F 44% 30.16 in 10.0 mi Calm Calm - N/A   Clear
6:53 PM 44.1 °F 40.8 °F 28.0 °F 53% 30.19 in 10.0 mi NNE 5.8 mph - N/A   Clear
7:53 PM 42.1 °F 37.1 °F 28.0 °F 58% 30.19 in 10.0 mi NNE 8.1 mph - N/A   Clear
8:53 PM 39.9 °F 35.1 °F 27.0 °F 60% 30.22 in 10.0 mi NNE 6.9 mph - N/A   Clear
9:53 PM 37.0 °F 31.6 °F 27.0 °F 67% 30.22 in 10.0 mi NNE 6.9 mph - N/A   Clear
10:53 PM 37.0 °F 31.6 °F 27.0 °F 67% 30.21 in 10.0 mi NE 6.9 mph - N/A   Clear
11:53 PM 33.1 °F 28.7 °F 26.1 °F 75% 30.24 in 10.0 mi NNE 4.6 mph - N/A   Clear